Regional Weather Roundup
Issued by NWS

Home | Current Version | Previous Version | Text Only | Print | Product List | Glossary Off
Versions: 1 2 3 4 5 6 7 8 9 10 11 12 13 14 15 16 17 18 19 20 21 22 23 24 25 26 27 28 29 30 31 32 33 34 35 36 37 38 39 40 41 42 43 44 45 46 47 48 49 50

000
ASUS43 KDMX 010407
RWRIA

WEATHER ROUNDUP FOR IOWA
NATIONAL WEATHER SERVICE DES MOINES IA
1100 PM CDT SUN AUG 31 2014

NOTE: "FAIR" INDICATES FEW OR NO CLOUDS BELOW 12,000 FEET WITH NO
SIGNIFICANT WEATHER AND/OR OBSTRUCTIONS TO VISIBILITY.

* - THESE STATIONS ARE NOT NWS STATIONS...THUS NOT UNDER NWS
QUALITY CONTROL.  THEY ALSO DO NOT REPORT WEATHER SUCH
AS PRECIPITATION OR FOG.

IAZ001>003-012>014-020>022-031>034-043>046-010500-
   NORTHWEST IOWA

CITY           SKY/WX    TMP DP  RH WIND       PRES   REMARKS
CARROLL *      PTCLDY    66  64  94 CALM      29.68R
CHEROKEE *     CLOUDY    64  64 100 CALM      29.67F
DENISON *      CLEAR     66  66 100 SE8       29.65S
LE MARS *        N/A     64  63  94 CALM      29.68S
ORANGE CITY *  CLEAR     66  63  88 CALM      29.68F
SHELDON *      MOCLDY    64  64 100 CALM      29.67S
SIOUX CITY     CLOUDY    65  63  93 CALM      29.65F
SPENCER        CLOUDY    65  63  93 E5        29.67F
STORM LAKE *   CLEAR     64  64 100 W5        29.67F
$$

IAZ055>058-069>071-079>083-090>094-010500-
   SOUTHWEST IOWA

CITY           SKY/WX    TMP DP  RH WIND       PRES   REMARKS
ATLANTIC *     PTCLDY    68  68 100 CALM      29.66S
AUDUBON *      CLEAR     70  66  88 CALM      29.67F
CLARINDA *     LGT RAIN  68  64  88 S17       29.69F
COUNCIL BLFS *   N/A     68  68 100 MISG        N/A
CRESTON *      CLOUDY    66  64  94 SE10G17   29.72F
HARLAN  *      CLEAR     66  66 100 CALM      29.70R
LAMONI         TSTM      68  64  87 NW14G29   29.82R
RED OAK *      CLOUDY    70  68  94 SW7       29.69S
SHENANDOAH *     N/A     72  70  94 S15       29.70R
$$

IAZ047>049-059>061-072>074-084-010500-
   CENTRAL IOWA

CITY           SKY/WX    TMP DP  RH WIND       PRES   REMARKS
AMES           RAIN      66  66 100 E3        29.74F
ANKENY *       LGT RAIN  66  66 100 SE16      29.73F
CHARITON *     LGT RAIN  75  66  73 S15       29.76R
DES MOINES     TSTM      68  65  90 SE15      29.76F FOG
GRINNELL*      RAIN      72  66  83 NW16      29.82R
KNOXVILLE *    LGT RAIN  73  66  78 NW25G32   29.80R
MARSHALLTOWN   TSTM      64  64 100 N9G22     29.83F FOG
PELLA *        RAIN      72  66  83 NW21G32   29.82R
PERRY *        DRIZZLE   68  66  94 SE5       29.69S
$$

IAZ004>006-015-016-023>025-035-036-010500-
   NORTH CENTRAL IOWA

CITY           SKY/WX    TMP DP  RH WIND       PRES   REMARKS
ALGONA *       MOCLDY    64  63  94 CALM      29.69R
CLARION *      CLOUDY    63  63 100 SE9       29.72F
ESTHERVILLE    CLOUDY    63  63 100 CALM      29.68F
FORT DODGE *   CLOUDY    64  63  94 SE7       29.70F
MASON CITY     LGT RAIN  63  62  97 S14       29.74F
FOREST CITY *    N/A     63  63 100 S15       29.71R
IOWA FALLS *   RAIN      63  63 100 E15G21    29.73F
$$

IAZ007>011-017>019-026>030-037>042-050>054-066-010500-
   NORTHEAST IOWA

CITY           SKY/WX    TMP DP  RH WIND       PRES   REMARKS
CEDAR RAPIDS   CLOUDY    77  71  82 S10       29.77R
CHARLES CITY * RAIN      63  63 100 S7G14     29.79F
CLINTON *      CLOUDY    73  70  88 S9        29.83S
DECORAH *      RAIN      68  64  88 W21G38    29.82R
DUBUQUE        CLOUDY    74  69  85 S15       29.79S
MONTICELLO *   CLEAR     77  70  78 S8G16     29.78S
OELWEIN *      HVY RAIN  64  63  94 W23G30    29.88R
WATERLOO       RAIN      65  63  93 W7        29.85R FOG
$$

IAZ064-065-067-068-078-010500-
   EAST CENTRAL IOWA

CITY           SKY/WX    TMP DP  RH WIND       PRES   REMARKS
DAVENPORT      CLOUDY    77  67  71 S14       29.82R
IOWA CITY      CLOUDY    76  71  85 SE9       29.79R
MT. PLEASANT * CLOUDY    77  66  69 SE9       29.79S
MUSCATINE *    CLEAR     77  68  73 S12       29.79S
QUAD CITIES    CLOUDY    74  69  85 S10       29.81S
$$

IAZ062-063-075>077-085>089-095>099-010500-
   SOUTHEAST IOWA

CITY           SKY/WX    TMP DP  RH WIND       PRES   REMARKS
BURLINGTON     CLOUDY    77  70  79 S13       29.81S
FAIRFIELD *    MOCLDY    79  66  65 S14G20    29.77S HX  81
FORT MADISON * CLEAR     79  70  73 SE8G18    29.81F HX  81
KEOKUK *       CLEAR     77  70  78 SE12      29.80S
OSKALOOSA *      N/A     77  68  73 S9        29.77R
CENTERVILLE *  PTCLDY    77  66  69 S10       29.79R
OTTUMWA        CLOUDY    79  66  64 S13       29.76R HX  81
WASHINGTON *   CLEAR     77  70  78 S12G18    29.79R
$$

ABBREVIATIONS USED IN REMARKS
   TC - TEMPERATURES IN CELSIUS
  WCI - WIND CHILL INDEX
   HX - HEAT INDEX
  VSB - VISIBILITY
$$




USA.gov is the U.S. government's official web portal to all federal, state and local government web resources and services.